FDX499 PANC-KEWR

Flight info

Callsign FDX499
Flight time N/A
Altitude 33000
Route ELLAM NCA20 OMSUN ALUSO YQH 59N120W 58N114W TULAG 54N100W YRL ETMAT SSM YVV ROC HNK FLOSI4
Aircraft MD11/H-SDE1E2E3FGHIJ2J3J4J5M1RWXY/LB1D1

Departure

Time N/A
Airport Ted Stevens Anchorage International Airport (PANC)

Arrival

Time 2026-05-04 04:22
Airport Newark Liberty International Airport (KEWR)
Time Latitude Longitude Altitude Speed Heading
2026-05-04 01:49 51.95762 -95.49479 34364 ft 518 kts 131°
2026-05-04 01:50 51.91262 -95.40359 34367 ft 518 kts 131°
2026-05-04 01:50 51.86736 -95.31281 34365 ft 518 kts 131°
2026-05-04 01:51 51.82190 -95.22231 34368 ft 518 kts 131°
2026-05-04 01:51 51.77654 -95.13169 34369 ft 519 kts 131°
2026-05-04 01:52 51.73116 -95.04101 34371 ft 519 kts 131°
2026-05-04 01:52 51.68568 -94.95045 34376 ft 520 kts 131°
2026-05-04 01:53 51.64009 -94.85999 34373 ft 520 kts 132°
2026-05-04 01:53 51.59441 -94.76969 34369 ft 520 kts 132°
2026-05-04 01:54 51.54864 -94.67954 34372 ft 521 kts 132°
2026-05-04 01:54 51.50276 -94.58950 34377 ft 521 kts 132°
2026-05-04 01:55 51.45681 -94.49963 34376 ft 521 kts 132°
2026-05-04 01:55 51.41070 -94.40978 34380 ft 522 kts 132°
2026-05-04 01:56 51.36478 -94.32070 34386 ft 522 kts 133°
2026-05-04 01:56 51.31785 -94.23089 34389 ft 523 kts 133°
2026-05-04 01:57 51.27123 -94.14157 34374 ft 524 kts 133°
2026-05-04 01:57 51.22465 -94.05215 34357 ft 524 kts 133°
2026-05-04 01:58 51.17809 -93.96292 34336 ft 524 kts 133°
2026-05-04 01:58 51.13172 -93.87440 34317 ft 524 kts 133°
2026-05-04 01:59 51.08466 -93.78485 34309 ft 524 kts 132°
2026-05-04 01:59 51.04058 -93.69220 34316 ft 526 kts 128°
2026-05-04 02:00 50.99927 -93.59705 34325 ft 527 kts 127°
2026-05-04 02:00 50.95785 -93.50121 34366 ft 526 kts 127°
2026-05-04 02:01 50.91609 -93.40596 34397 ft 526 kts 127°
2026-05-04 02:01 50.87412 -93.31105 34436 ft 526 kts 128°
2026-05-04 02:02 50.83208 -93.21637 34445 ft 525 kts 128°
2026-05-04 02:02 50.79000 -93.12191 34449 ft 525 kts 128°
2026-05-04 02:03 50.74784 -93.02758 34456 ft 526 kts 128°
2026-05-04 02:03 50.70559 -92.93341 34459 ft 526 kts 128°
2026-05-04 02:04 50.66323 -92.83931 34466 ft 526 kts 128°
2026-05-04 02:04 50.62077 -92.74532 34472 ft 527 kts 128°
2026-05-04 02:05 50.57799 -92.65153 34480 ft 528 kts 129°
2026-05-04 02:05 50.53495 -92.55798 34489 ft 528 kts 128°
2026-05-04 02:06 50.49199 -92.46428 34496 ft 529 kts 128°
2026-05-04 02:06 50.44901 -92.37049 34495 ft 529 kts 128°
2026-05-04 02:07 50.40595 -92.27682 34500 ft 530 kts 128°
2026-05-04 02:07 50.36275 -92.18323 34498 ft 530 kts 128°
2026-05-04 02:08 50.31943 -92.08970 34495 ft 531 kts 128°
2026-05-04 02:08 50.27599 -91.99626 34488 ft 531 kts 128°
2026-05-04 02:09 50.23247 -91.90299 34479 ft 531 kts 128°
2026-05-04 02:09 50.18890 -91.80994 34477 ft 531 kts 128°
2026-05-04 02:10 50.14527 -91.71710 34482 ft 531 kts 128°
2026-05-04 02:10 50.10151 -91.62452 34490 ft 531 kts 129°
2026-05-04 02:11 50.05742 -91.53244 34505 ft 531 kts 129°
2026-05-04 02:11 50.01336 -91.44016 34518 ft 531 kts 128°
2026-05-04 02:12 49.96942 -91.34801 34526 ft 531 kts 128°
2026-05-04 02:12 49.92541 -91.25593 34529 ft 531 kts 128°
2026-05-04 02:13 49.88878 -91.17956 34532 ft 531 kts 128°
2026-05-04 02:13 49.83740 -91.07283 34538 ft 531 kts 128°
2026-05-04 02:14 49.79313 -90.98121 34546 ft 532 kts 128°
2026-05-04 02:14 49.74874 -90.88968 34545 ft 532 kts 128°
2026-05-04 02:15 49.70430 -90.79836 34549 ft 532 kts 128°
2026-05-04 02:15 49.66730 -90.72256 34554 ft 532 kts 129°
2026-05-04 02:16 49.62271 -90.63150 34554 ft 532 kts 129°
2026-05-04 02:16 49.57782 -90.54096 34556 ft 532 kts 129°
2026-05-04 02:17 49.53283 -90.45049 34555 ft 532 kts 129°
2026-05-04 02:17 49.48797 -90.36000 34560 ft 532 kts 129°
2026-05-04 02:18 49.44303 -90.26944 34566 ft 533 kts 128°
2026-05-04 02:18 49.39800 -90.17900 34568 ft 533 kts 128°
2026-05-04 02:19 49.35289 -90.08874 34572 ft 534 kts 128°
2026-05-04 02:19 49.30756 -89.99836 34574 ft 534 kts 128°
2026-05-04 02:20 49.26219 -89.90820 34574 ft 534 kts 128°
2026-05-04 02:20 49.21672 -89.81817 34572 ft 534 kts 128°
2026-05-04 02:21 49.17122 -89.72836 34577 ft 535 kts 128°
2026-05-04 02:21 49.12559 -89.63860 34582 ft 534 kts 128°
2026-05-04 02:22 49.07975 -89.54931 34589 ft 534 kts 129°
2026-05-04 02:22 49.03382 -89.46042 34582 ft 535 kts 129°
2026-05-04 02:23 48.98785 -89.37117 34589 ft 534 kts 128°
2026-05-04 02:23 48.94199 -89.28214 34601 ft 534 kts 128°
2026-05-04 02:24 48.89605 -89.19324 34602 ft 534 kts 128°
2026-05-04 02:24 48.85042 -89.10405 34605 ft 535 kts 127°
2026-05-04 02:25 48.80690 -89.01243 34604 ft 535 kts 125°
2026-05-04 02:25 48.76422 -88.92020 34607 ft 534 kts 124°
2026-05-04 02:26 48.72145 -88.82835 34606 ft 533 kts 125°
2026-05-04 02:26 48.67860 -88.73710 34601 ft 531 kts 125°
2026-05-04 02:27 48.63571 -88.64623 34603 ft 530 kts 125°
2026-05-04 02:27 48.59317 -88.55640 34606 ft 529 kts 125°
2026-05-04 02:28 48.55037 -88.46628 34612 ft 528 kts 125°
2026-05-04 02:28 48.50753 -88.37638 34611 ft 527 kts 125°
2026-05-04 02:29 48.46468 -88.28677 34615 ft 527 kts 125°
2026-05-04 02:29 48.42178 -88.19734 34611 ft 527 kts 125°
2026-05-04 02:30 48.37880 -88.10810 34616 ft 526 kts 125°
2026-05-04 02:30 48.33545 -88.01926 34623 ft 526 kts 126°
2026-05-04 02:31 48.29226 -87.93073 34629 ft 525 kts 125°
2026-05-04 02:31 48.24919 -87.84221 34631 ft 524 kts 125°
2026-05-04 02:32 48.20619 -87.75400 34629 ft 523 kts 126°
2026-05-04 02:32 48.16318 -87.66606 34632 ft 523 kts 126°
2026-05-04 02:33 48.12042 -87.57893 34634 ft 522 kts 126°
2026-05-04 02:33 48.07735 -87.49146 34642 ft 522 kts 126°
2026-05-04 02:34 48.03426 -87.40424 34638 ft 522 kts 126°
2026-05-04 02:34 47.99111 -87.31718 34643 ft 521 kts 126°
2026-05-04 02:35 47.94791 -87.23030 34645 ft 521 kts 126°
2026-05-04 02:35 47.90466 -87.14357 34648 ft 521 kts 126°
2026-05-04 02:36 47.86121 -87.05725 34650 ft 521 kts 126°
2026-05-04 02:36 47.81758 -86.97116 34650 ft 521 kts 126°
2026-05-04 02:37 47.77404 -86.88496 34664 ft 521 kts 126°
2026-05-04 02:37 47.73050 -86.79877 34655 ft 521 kts 126°
2026-05-04 02:38 47.68692 -86.71272 34665 ft 521 kts 126°
2026-05-04 02:38 47.64324 -86.62678 34667 ft 522 kts 126°
2026-05-04 02:39 47.59947 -86.54096 34673 ft 522 kts 126°
2026-05-04 02:39 47.55563 -86.45525 34668 ft 522 kts 126°
2026-05-04 02:40 47.51171 -86.36967 34674 ft 522 kts 126°
2026-05-04 02:40 47.46772 -86.28422 34673 ft 522 kts 126°
2026-05-04 02:41 47.42362 -86.19883 34672 ft 522 kts 126°
2026-05-04 02:41 47.37943 -86.11363 34672 ft 523 kts 127°
2026-05-04 02:42 47.33492 -86.02885 34684 ft 523 kts 127°
2026-05-04 02:42 47.29050 -85.94411 34686 ft 523 kts 127°
2026-05-04 02:43 47.24711 -85.86120 34684 ft 523 kts 127°
2026-05-04 02:43 47.20270 -85.77647 34688 ft 523 kts 127°
2026-05-04 02:44 47.15825 -85.69194 34684 ft 523 kts 127°
2026-05-04 02:44 47.11374 -85.60759 34681 ft 522 kts 127°
2026-05-04 02:45 47.06918 -85.52341 34687 ft 522 kts 127°
2026-05-04 02:45 47.02487 -85.43995 34683 ft 522 kts 127°
2026-05-04 02:46 46.98024 -85.35615 34688 ft 522 kts 127°
2026-05-04 02:46 46.93556 -85.27252 34688 ft 521 kts 128°
2026-05-04 02:47 46.89086 -85.18909 34689 ft 521 kts 128°
2026-05-04 02:47 46.84594 -85.10603 34684 ft 520 kts 128°
2026-05-04 02:48 46.80097 -85.02332 34686 ft 520 kts 128°
2026-05-04 02:48 46.75610 -84.94054 34691 ft 520 kts 128°
2026-05-04 02:49 46.71128 -84.85787 34698 ft 520 kts 128°
2026-05-04 02:49 46.66637 -84.77528 34695 ft 520 kts 128°
2026-05-04 02:50 46.62145 -84.69293 34699 ft 519 kts 128°
2026-05-04 02:50 46.57648 -84.61075 34694 ft 519 kts 128°
2026-05-04 02:51 46.53147 -84.52873 34687 ft 519 kts 128°
2026-05-04 02:51 46.48637 -84.44681 34695 ft 519 kts 128°
2026-05-04 02:52 46.44120 -84.36499 34701 ft 519 kts 129°
2026-05-04 02:52 46.39688 -84.28246 34703 ft 519 kts 126°
2026-05-04 02:53 46.35475 -84.19745 34705 ft 519 kts 124°
2026-05-04 02:53 46.31319 -84.11195 34705 ft 519 kts 125°
2026-05-04 02:54 46.27145 -84.02673 34707 ft 519 kts 125°
2026-05-04 02:54 46.22952 -83.94173 34711 ft 519 kts 125°
2026-05-04 02:55 46.16649 -83.81462 34716 ft 519 kts 125°
2026-05-04 02:56 46.12436 -83.72996 34718 ft 519 kts 125°
2026-05-04 02:56 46.08225 -83.64557 34719 ft 519 kts 126°
2026-05-04 02:57 46.04004 -83.56124 34718 ft 519 kts 126°
2026-05-04 02:57 45.99780 -83.47710 34715 ft 519 kts 126°
2026-05-04 02:58 45.95547 -83.39304 34714 ft 519 kts 126°
2026-05-04 02:58 45.91295 -83.30926 34714 ft 519 kts 126°
2026-05-04 02:59 45.86995 -83.22518 34709 ft 519 kts 126°
2026-05-04 02:59 45.83448 -83.15560 34714 ft 519 kts 126°
2026-05-04 03:00 45.79189 -83.07201 34715 ft 520 kts 126°
2026-05-04 03:00 45.74919 -82.98837 34717 ft 520 kts 126°
2026-05-04 03:01 45.70640 -82.90486 34723 ft 520 kts 126°
2026-05-04 03:01 45.66357 -82.82150 34729 ft 520 kts 126°
2026-05-04 03:02 45.62061 -82.73815 34735 ft 521 kts 126°
2026-05-04 03:02 45.57762 -82.65499 34741 ft 520 kts 126°
2026-05-04 03:03 45.53457 -82.57196 34747 ft 520 kts 127°
2026-05-04 03:03 45.49150 -82.48912 34744 ft 520 kts 127°
2026-05-04 03:04 45.44840 -82.40649 34743 ft 519 kts 127°
2026-05-04 03:04 45.40509 -82.32436 34739 ft 519 kts 127°
2026-05-04 03:05 45.36168 -82.24222 34737 ft 519 kts 127°
2026-05-04 03:05 45.31844 -82.16016 34734 ft 519 kts 127°
2026-05-04 03:06 45.27524 -82.07824 34735 ft 517 kts 127°
2026-05-04 03:06 45.23211 -81.99671 34730 ft 516 kts 127°
2026-05-04 03:07 45.18901 -81.91547 34726 ft 515 kts 127°
2026-05-04 03:07 45.14595 -81.83457 34726 ft 514 kts 127°
2026-05-04 03:08 45.10286 -81.75383 34727 ft 513 kts 128°
2026-05-04 03:08 45.05978 -81.67333 34728 ft 512 kts 128°
2026-05-04 03:09 45.01674 -81.59315 34736 ft 512 kts 128°
2026-05-04 03:09 44.97367 -81.51311 34741 ft 511 kts 128°
2026-05-04 03:10 44.93055 -81.43339 34753 ft 511 kts 128°
2026-05-04 03:10 44.88721 -81.35409 34760 ft 510 kts 128°
2026-05-04 03:11 44.84369 -81.27428 34768 ft 510 kts 128°
2026-05-04 03:11 44.80058 -81.19510 34765 ft 509 kts 128°
2026-05-04 03:12 44.75749 -81.11613 34766 ft 509 kts 128°
2026-05-04 03:12 44.71436 -81.03730 34768 ft 508 kts 128°
2026-05-04 03:13 44.67312 -80.95678 34768 ft 508 kts 124°
2026-05-04 03:13 44.63564 -80.87335 34775 ft 508 kts 122°
2026-05-04 03:14 44.59848 -80.78900 34786 ft 508 kts 123°
2026-05-04 03:14 44.56076 -80.70448 34795 ft 508 kts 123°
2026-05-04 03:15 44.52305 -80.62083 34798 ft 507 kts 123°
2026-05-04 03:15 44.48524 -80.53733 34805 ft 507 kts 123°
2026-05-04 03:16 44.44739 -80.45394 34803 ft 507 kts 123°
2026-05-04 03:16 44.40950 -80.37067 34809 ft 507 kts 124°
2026-05-04 03:17 44.37152 -80.28744 34808 ft 508 kts 124°
2026-05-04 03:17 44.33347 -80.20431 34818 ft 508 kts 124°
2026-05-04 03:18 44.29537 -80.12128 34817 ft 508 kts 124°
2026-05-04 03:18 44.25719 -80.03835 34825 ft 508 kts 124°
2026-05-04 03:19 44.21896 -79.95627 34827 ft 508 kts 124°
2026-05-04 03:19 44.18013 -79.87306 34826 ft 509 kts 124°
2026-05-04 03:20 44.14161 -79.79025 34830 ft 509 kts 124°
2026-05-04 03:20 44.10309 -79.70749 34839 ft 510 kts 124°
2026-05-04 03:21 44.06448 -79.62477 34835 ft 510 kts 124°
2026-05-04 03:21 44.02577 -79.54211 34835 ft 510 kts 124°
2026-05-04 03:22 43.98697 -79.45950 34834 ft 511 kts 124°
2026-05-04 03:22 43.94807 -79.37690 34837 ft 511 kts 124°
2026-05-04 03:23 43.90908 -79.29436 34842 ft 511 kts 124°
2026-05-04 03:23 43.87004 -79.21194 34842 ft 512 kts 124°
2026-05-04 03:24 43.83093 -79.12960 34841 ft 512 kts 124°
2026-05-04 03:24 43.79168 -79.04730 34841 ft 512 kts 125°
2026-05-04 03:25 43.75221 -78.96552 34842 ft 511 kts 125°
2026-05-04 03:25 43.71281 -78.88374 34844 ft 511 kts 125°
2026-05-04 03:26 43.67349 -78.80196 34847 ft 510 kts 125°
2026-05-04 03:26 43.63425 -78.72047 34849 ft 510 kts 125°
2026-05-04 03:27 43.59490 -78.63900 34855 ft 509 kts 125°
2026-05-04 03:27 43.55556 -78.55780 34858 ft 509 kts 125°
2026-05-04 03:28 43.51619 -78.47676 34859 ft 509 kts 125°
2026-05-04 03:28 43.47678 -78.39586 34863 ft 508 kts 126°
2026-05-04 03:29 43.43735 -78.31513 34862 ft 508 kts 126°
2026-05-04 03:29 43.39788 -78.23455 34866 ft 508 kts 126°
2026-05-04 03:30 43.35835 -78.15407 34865 ft 508 kts 126°
2026-05-04 03:30 43.31867 -78.07379 34870 ft 508 kts 126°
2026-05-04 03:31 43.27878 -77.99380 34879 ft 508 kts 126°
2026-05-04 03:31 43.23899 -77.91377 34880 ft 508 kts 126°
2026-05-04 03:32 43.19915 -77.83355 34878 ft 508 kts 126°
2026-05-04 03:32 43.15929 -77.75347 34888 ft 508 kts 126°
2026-05-04 03:33 43.11938 -77.67281 34884 ft 509 kts 124°
2026-05-04 03:33 43.08247 -77.59006 34881 ft 510 kts 122°
2026-05-04 03:34 43.04687 -77.50625 34870 ft 510 kts 122°
2026-05-04 03:34 43.01116 -77.42255 34876 ft 510 kts 122°
2026-05-04 03:35 42.97518 -77.33907 34885 ft 510 kts 122°
2026-05-04 03:35 42.93908 -77.25578 34889 ft 510 kts 122°
2026-05-04 03:36 42.90879 -77.18608 34883 ft 510 kts 122°
2026-05-04 03:36 42.87258 -77.10293 34894 ft 510 kts 122°
2026-05-04 03:37 42.83631 -77.01989 34911 ft 510 kts 122°
2026-05-04 03:37 42.79999 -76.93696 34911 ft 510 kts 122°
2026-05-04 03:38 42.76363 -76.85416 34911 ft 509 kts 122°
2026-05-04 03:38 42.72722 -76.77152 34916 ft 509 kts 122°
2026-05-04 03:39 42.69070 -76.68902 34922 ft 509 kts 123°
2026-05-04 03:39 42.65396 -76.60693 34925 ft 509 kts 123°
2026-05-04 03:40 42.61724 -76.52467 34926 ft 509 kts 123°
2026-05-04 03:40 42.58061 -76.44248 34923 ft 509 kts 123°
2026-05-04 03:41 42.54395 -76.36038 34923 ft 509 kts 123°
2026-05-04 03:41 42.50723 -76.27838 34926 ft 509 kts 123°
2026-05-04 03:42 42.47044 -76.19645 34927 ft 509 kts 123°
2026-05-04 03:42 42.43357 -76.11460 34929 ft 509 kts 123°
2026-05-04 03:43 42.39661 -76.03278 34929 ft 510 kts 123°
2026-05-04 03:43 42.35954 -75.95092 34926 ft 510 kts 123°
2026-05-04 03:44 42.32242 -75.86920 34929 ft 510 kts 123°
2026-05-04 03:44 42.28521 -75.78748 34930 ft 511 kts 123°
2026-05-04 03:45 42.24780 -75.70595 34931 ft 511 kts 124°
2026-05-04 03:45 42.21023 -75.62467 34938 ft 511 kts 124°
2026-05-04 03:46 42.17271 -75.54321 34951 ft 511 kts 124°
2026-05-04 03:46 42.13526 -75.46188 34954 ft 511 kts 124°
2026-05-04 03:47 42.09768 -75.38044 34956 ft 511 kts 124°
2026-05-04 03:47 42.06007 -75.29919 34956 ft 511 kts 124°
2026-05-04 03:48 42.02088 -75.21866 34963 ft 510 kts 127°
2026-05-04 03:48 41.97974 -75.14094 34960 ft 510 kts 128°
2026-05-04 03:49 41.93827 -75.06354 34960 ft 511 kts 128°
2026-05-04 03:49 41.89690 -74.98590 34957 ft 511 kts 128°
2026-05-04 03:50 41.85527 -74.90765 34951 ft 512 kts 128°
2026-05-04 03:50 41.81385 -74.82996 34954 ft 512 kts 128°
2026-05-04 03:51 41.77301 -74.75350 34948 ft 501 kts 129°
2026-05-04 03:51 41.73240 -74.67777 34944 ft 501 kts 129°
2026-05-04 03:52 41.69325 -74.60496 34945 ft 501 kts 129°
2026-05-04 03:52 41.65246 -74.52926 34944 ft 502 kts 129°
2026-05-04 03:53 41.61063 -74.45470 34961 ft 499 kts 135°
2026-05-04 03:53 41.58622 -74.42218 34943 ft 492 kts 146°
2026-05-04 03:53 41.55820 -74.39683 34945 ft 483 kts 158°
2026-05-04 03:53 41.52746 -74.38002 34954 ft 473 kts 171°
2026-05-04 03:54 41.49510 -74.37180 34956 ft 463 kts 182°
2026-05-04 03:54 41.43204 -74.37900 34958 ft 446 kts 201°
2026-05-04 03:55 41.37322 -74.40391 34962 ft 442 kts 205°
2026-05-04 03:55 41.31471 -74.43104 34963 ft 443 kts 205°
2026-05-04 03:56 41.25627 -74.45696 34968 ft 443 kts 204°
2026-05-04 03:56 41.19766 -74.48226 34966 ft 443 kts 204°
2026-05-04 03:57 41.13904 -74.50738 34971 ft 442 kts 204°
2026-05-04 03:57 41.11025 -74.51963 33862 ft 435 kts 204°
2026-05-04 03:57 41.08116 -74.53186 31921 ft 440 kts 202°
2026-05-04 03:57 41.05072 -74.54022 29935 ft 452 kts 194°
2026-05-04 03:58 40.98700 -74.54751 25162 ft 466 kts 188°
2026-05-04 03:58 40.95462 -74.54967 23190 ft 464 kts 188°
2026-05-04 03:58 40.92277 -74.55181 21836 ft 448 kts 188°
2026-05-04 03:59 40.89144 -74.55416 21709 ft 451 kts 188°
2026-05-04 03:59 40.85987 -74.55678 21305 ft 449 kts 188°
2026-05-04 03:59 40.82869 -74.55886 20910 ft 447 kts 187°
2026-05-04 03:59 40.79818 -74.56385 20509 ft 437 kts 199°
2026-05-04 04:00 40.77030 -74.57801 20094 ft 425 kts 214°
2026-05-04 04:00 40.74709 -74.60098 19611 ft 412 kts 230°
2026-05-04 04:00 40.73036 -74.63083 19135 ft 402 kts 245°
2026-05-04 04:00 40.72134 -74.66517 18686 ft 395 kts 262°
2026-05-04 04:01 40.72078 -74.70098 18218 ft 391 kts 278°
2026-05-04 04:01 40.72873 -74.73503 17676 ft 390 kts 296°
2026-05-04 04:01 40.74450 -74.76399 17183 ft 392 kts 313°
2026-05-04 04:01 40.76663 -74.78502 16640 ft 396 kts 330°
2026-05-04 04:02 40.79303 -74.79588 16092 ft 402 kts 348°
2026-05-04 04:02 40.82118 -74.79652 15568 ft 407 kts
2026-05-04 04:02 40.84929 -74.79145 15042 ft 408 kts
2026-05-04 04:02 40.87720 -74.78566 14522 ft 404 kts
2026-05-04 04:03 40.90501 -74.78261 14131 ft 399 kts 357°
2026-05-04 04:03 40.93261 -74.78277 13757 ft 393 kts 352°
2026-05-04 04:03 40.95900 -74.78937 13352 ft 381 kts 338°
2026-05-04 04:03 40.98503 -74.79707 13060 ft 386 kts 352°
2026-05-04 04:04 41.00324 -74.79608 13025 ft 392 kts
2026-05-04 04:04 41.02960 -74.78566 12831 ft 400 kts 21°
2026-05-04 04:04 41.05276 -74.76492 12796 ft 408 kts 39°
2026-05-04 04:04 41.07074 -74.73556 12793 ft 416 kts 56°
2026-05-04 04:05 41.08187 -74.70009 12793 ft 421 kts 74°
2026-05-04 04:05 41.08531 -74.66157 12581 ft 417 kts 91°
2026-05-04 04:05 41.08054 -74.62463 12289 ft 399 kts 109°
2026-05-04 04:05 41.06852 -74.59366 12015 ft 381 kts 129°
2026-05-04 04:06 41.05033 -74.57025 11735 ft 361 kts 149°
2026-05-04 04:06 41.02828 -74.55677 11446 ft 341 kts 168°
2026-05-04 04:06 41.00557 -74.54945 11177 ft 333 kts 173°
2026-05-04 04:06 40.98290 -74.54352 10905 ft 331 kts 173°
2026-05-04 04:07 40.96028 -74.53783 10633 ft 331 kts 173°
2026-05-04 04:07 40.93746 -74.53212 10358 ft 326 kts 173°
2026-05-04 04:07 40.91520 -74.52656 9833 ft 323 kts 173°
2026-05-04 04:07 40.89355 -74.52112 9236 ft 311 kts 173°
2026-05-04 04:08 40.87264 -74.51889 8645 ft 293 kts 191°
2026-05-04 04:08 40.85351 -74.52522 8085 ft 279 kts 205°
2026-05-04 04:08 40.83524 -74.53444 7516 ft 275 kts 207°
2026-05-04 04:08 40.81759 -74.54374 6954 ft 272 kts 207°
2026-05-04 04:09 40.79980 -74.55184 6408 ft 273 kts 194°
2026-05-04 04:09 40.78082 -74.55126 5993 ft 273 kts 175°
2026-05-04 04:09 40.76216 -74.54667 5607 ft 273 kts 169°
2026-05-04 04:09 40.74421 -74.53834 5210 ft 273 kts 161°
2026-05-04 04:10 40.72680 -74.52846 4753 ft 270 kts 160°
2026-05-04 04:10 40.70972 -74.51868 4309 ft 265 kts 161°
2026-05-04 04:10 40.69300 -74.50933 3916 ft 258 kts 162°
2026-05-04 04:10 40.67657 -74.50035 3540 ft 254 kts 162°
2026-05-04 04:11 40.66050 -74.49171 3172 ft 251 kts 163°
2026-05-04 04:11 40.64422 -74.48306 3007 ft 248 kts 163°
2026-05-04 04:11 40.62837 -74.47474 3003 ft 249 kts 163°
2026-05-04 04:11 40.61209 -74.46622 3000 ft 249 kts 163°
2026-05-04 04:12 40.59599 -74.45783 3003 ft 249 kts 163°
2026-05-04 04:12 40.57990 -74.44947 3005 ft 249 kts 163°
2026-05-04 04:12 40.56380 -74.44112 3002 ft 249 kts 163°
2026-05-04 04:12 40.54770 -74.43279 3005 ft 248 kts 163°
2026-05-04 04:13 40.53167 -74.42448 3005 ft 242 kts 163°
2026-05-04 04:13 40.51688 -74.41568 3023 ft 230 kts 154°
2026-05-04 04:13 40.50469 -74.40230 2997 ft 231 kts 131°
2026-05-04 04:13 40.49742 -74.38342 2995 ft 228 kts 104°
2026-05-04 04:14 40.49687 -74.36332 2985 ft 217 kts 77°
2026-05-04 04:14 40.50056 -74.34415 3018 ft 217 kts 71°
2026-05-04 04:14 40.50490 -74.32517 3016 ft 217 kts 71°
2026-05-04 04:14 40.50931 -74.30625 3010 ft 217 kts 70°
2026-05-04 04:15 40.51519 -74.28824 3004 ft 213 kts 53°
2026-05-04 04:15 40.52500 -74.27421 2999 ft 206 kts 29°
2026-05-04 04:15 40.53737 -74.26491 3029 ft 204 kts 21°
2026-05-04 04:15 40.54996 -74.25661 3010 ft 203 kts 20°
2026-05-04 04:16 40.56264 -74.24838 3017 ft 203 kts 20°
2026-05-04 04:16 40.57119 -74.24284 3012 ft 202 kts 20°
2026-05-04 04:16 40.58493 -74.23393 2982 ft 193 kts 20°
2026-05-04 04:16 40.59695 -74.22606 3019 ft 193 kts 24°
2026-05-04 04:17 40.60804 -74.21586 3015 ft 195 kts 30°
2026-05-04 04:17 40.61870 -74.20460 3010 ft 198 kts 37°
2026-05-04 04:17 40.62790 -74.19103 3006 ft 201 kts 50°
2026-05-04 04:17 40.63492 -74.17507 3010 ft 201 kts 62°
2026-05-04 04:18 40.63918 -74.15777 3000 ft 202 kts 75°
2026-05-04 04:18 40.64093 -74.14534 2831 ft 202 kts 78°
2026-05-04 04:18 40.64301 -74.12736 2616 ft 183 kts 79°
2026-05-04 04:18 40.64485 -74.11100 2457 ft 174 kts 76°
2026-05-04 04:19 40.64883 -74.09607 1858 ft 170 kts 55°
2026-05-04 04:19 40.65623 -74.08470 1462 ft 156 kts 29°
2026-05-04 04:19 40.66614 -74.07892 1335 ft 158 kts
2026-05-04 04:19 40.67702 -74.07916 1279 ft 156 kts 339°
2026-05-04 04:20 40.68633 -74.08571 988 ft 152 kts 314°
2026-05-04 04:20 40.69235 -74.09701 658 ft 149 kts 288°
2026-05-04 04:20 40.69483 -74.10566 662 ft 152 kts 286°
2026-05-04 04:20 40.69775 -74.11883 643 ft 154 kts 282°
2026-05-04 04:21 40.69969 -74.13277 481 ft 156 kts 276°
2026-05-04 04:21 40.70061 -74.14694 266 ft 155 kts 272°
2026-05-04 04:21 40.70150 -74.16091 31 ft 150 kts 271°
2026-05-04 04:21 40.70224 -74.17252 32 ft 94 kts 275°
2026-05-04 04:22 40.70258 -74.17755 33 ft 34 kts 275°
2026-05-04 04:22 40.70273 -74.17991 33 ft 12 kts 274°
2026-05-04 04:22 40.70254 -74.18036 33 ft 8 kts 224°
2026-05-04 04:22 40.70195 -74.18074 31 ft 1 kts 197°
2026-05-04 04:23 40.70192 -74.18075 31 ft 1 kts 197°
2026-05-04 04:23 40.70191 -74.18076 30 ft 0 kts 197°
2026-05-04 04:23 40.70186 -74.18077 31 ft 3 kts 193°